ANZ288 ZSPD-NZAA

Flight info

Callsign ANZ288
Flight time N/A
Altitude 35000
Route LAM91D LAMEN A593 SADLI Y590 BEDAR Y591 ISPIT Z41 AGIKA G339 PAKDO/N0497F370 G339 UNZ A597 ADBON/N0492F390 A597 LEKAX/N0487F410 A597 DUGAN
Aircraft B789/H-SDE1E2E3FGHIJ2J3J4J5M1RWXY/LB1D1

Departure

Time 2026-05-04 06:06
Airport Shanghai Pudong International Airport (ZSPD)

Arrival

Time N/A
Airport Auckland International Airport (NZAA)
Time Latitude Longitude Altitude Speed Heading
2026-05-04 05:06 31.15329 121.79575 28 ft 0 kts 72°
2026-05-04 05:39 31.15323 121.79556 26 ft 4 kts 72°
2026-05-04 05:39 31.15315 121.79526 28 ft 4 kts 72°
2026-05-04 05:40 31.15306 121.79475 27 ft 4 kts 115°
2026-05-04 05:40 31.15319 121.79459 27 ft 4 kts 159°
2026-05-04 05:40 31.15342 121.79451 27 ft 1 kts 163°
2026-05-04 05:45 31.15108 121.79536 28 ft 13 kts 162°
2026-05-04 05:45 31.15016 121.79571 28 ft 15 kts 162°
2026-05-04 05:47 31.14405 121.79802 28 ft 17 kts 162°
2026-05-04 05:47 31.14291 121.79845 28 ft 18 kts 162°
2026-05-04 05:47 31.14166 121.79893 28 ft 20 kts 162°
2026-05-04 05:48 31.14037 121.79942 28 ft 10 kts 162°
2026-05-04 05:48 31.14023 121.79947 28 ft 3 kts 162°
2026-05-04 05:48 31.13994 121.79958 28 ft 6 kts 162°
2026-05-04 05:48 31.13950 121.79975 28 ft 8 kts 162°
2026-05-04 05:49 31.13889 121.79999 28 ft 10 kts 162°
2026-05-04 05:49 31.13813 121.80028 28 ft 13 kts 162°
2026-05-04 05:49 31.13723 121.80060 28 ft 14 kts 163°
2026-05-04 05:49 31.13620 121.80097 28 ft 16 kts 163°
2026-05-04 05:51 31.13086 121.80300 28 ft 6 kts 172°
2026-05-04 05:51 31.13049 121.80283 28 ft 6 kts 224°
2026-05-04 05:52 31.13033 121.80237 28 ft 7 kts 252°
2026-05-04 05:52 31.13014 121.80172 28 ft 10 kts 252°
2026-05-04 05:52 31.12982 121.80106 28 ft 8 kts 237°
2026-05-04 05:52 31.12957 121.80046 28 ft 7 kts 230°
2026-05-04 05:53 31.12911 121.80034 28 ft 7 kts 168°
2026-05-04 05:54 31.12743 121.80003 28 ft 0 kts 252°
2026-05-04 05:55 31.12743 121.80001 28 ft 1 kts 252°
2026-05-04 05:55 31.12738 121.79983 28 ft 4 kts 252°
2026-05-04 05:56 31.12735 121.79972 28 ft 0 kts 252°
2026-05-04 06:01 31.12734 121.79971 28 ft 0 kts 252°
2026-05-04 06:01 31.12734 121.79969 28 ft 0 kts 252°
2026-05-04 06:03 31.12733 121.79966 28 ft 0 kts 252°
2026-05-04 06:05 31.12743 121.79878 28 ft 3 kts 328°
2026-05-04 06:05 31.12784 121.79860 27 ft 0 kts 343°
2026-05-04 06:05 31.12811 121.79850 27 ft 11 kts 343°
2026-05-04 06:06 31.12981 121.79789 27 ft 53 kts 342°
2026-05-04 06:06 31.13571 121.79568 27 ft 124 kts 341°
2026-05-04 06:06 31.14598 121.79183 31 ft 184 kts 343°
2026-05-04 06:06 31.15879 121.78687 639 ft 190 kts 341°
2026-05-04 06:07 31.17127 121.78185 1256 ft 192 kts 338°
2026-05-04 06:07 31.18393 121.77700 1964 ft 191 kts 340°
2026-05-04 06:07 31.19711 121.77183 2395 ft 213 kts 338°
2026-05-04 06:07 31.21190 121.76538 2730 ft 239 kts 338°
2026-05-04 06:08 31.22837 121.75858 3180 ft 259 kts 338°
2026-05-04 06:08 31.24545 121.75177 4114 ft 258 kts 339°
2026-05-04 06:08 31.26246 121.74494 4942 ft 259 kts 339°
2026-05-04 06:08 31.27947 121.73799 5807 ft 257 kts 339°
2026-05-04 06:09 31.29627 121.73114 6689 ft 255 kts 339°
2026-05-04 06:09 31.31402 121.72800 7440 ft 263 kts
2026-05-04 06:11 31.38164 121.87143 11279 ft 359 kts 56°
2026-05-04 06:11 31.39414 121.89701 11961 ft 364 kts 58°
2026-05-04 06:13 31.48805 122.08513 15752 ft 402 kts 58°
2026-05-04 06:14 31.56909 122.25368 15748 ft 396 kts 58°
2026-05-04 06:14 31.58265 122.28188 15757 ft 397 kts 58°
2026-05-04 06:15 31.59624 122.31009 15763 ft 397 kts 58°
2026-05-04 06:15 31.60979 122.33824 15758 ft 396 kts 58°
2026-05-04 06:15 31.62262 122.36684 15757 ft 397 kts 68°
2026-05-04 06:15 31.62916 122.39839 15776 ft 400 kts 79°
2026-05-04 06:16 31.63362 122.43059 15768 ft 401 kts 81°
2026-05-04 06:16 31.63754 122.46294 15772 ft 400 kts 81°
2026-05-04 06:16 31.64167 122.49528 15775 ft 399 kts 80°
2026-05-04 06:16 31.64606 122.52741 15771 ft 399 kts 80°
2026-05-04 06:17 31.65040 122.55965 15776 ft 399 kts 80°
2026-05-04 06:17 31.65458 122.59184 15776 ft 399 kts 81°
2026-05-04 06:17 31.65876 122.62402 15776 ft 399 kts 80°
2026-05-04 06:17 31.66301 122.65630 15913 ft 402 kts 80°
2026-05-04 06:18 31.66730 122.68863 16676 ft 402 kts 80°
2026-05-04 06:18 31.67160 122.72128 17258 ft 407 kts 80°
2026-05-04 06:18 31.67586 122.75390 17877 ft 412 kts 79°
2026-05-04 06:20 31.70675 122.98456 20981 ft 448 kts 80°
2026-05-04 06:20 31.71161 123.02094 21402 ft 453 kts 80°
2026-05-04 06:21 31.73144 123.17069 23019 ft 474 kts 81°
2026-05-04 06:21 31.73652 123.20924 23371 ft 480 kts 81°
2026-05-04 06:22 31.74164 123.24821 23759 ft 485 kts 81°
2026-05-04 06:22 31.74679 123.28755 24085 ft 489 kts 81°
2026-05-04 06:25 31.67487 123.79904 28360 ft 514 kts 117°
2026-05-04 06:25 31.66219 123.83836 28685 ft 517 kts 117°
2026-05-04 06:26 31.64961 123.87739 29007 ft 519 kts 117°
2026-05-04 06:26 31.63682 123.91709 29340 ft 521 kts 117°
2026-05-04 06:26 31.62562 123.95781 29609 ft 531 kts 107°
2026-05-04 06:26 31.62051 124.00121 29854 ft 544 kts 96°
2026-05-04 06:27 31.64993 124.17853 30890 ft 561 kts 77°
2026-05-04 06:28 31.65992 124.22297 31123 ft 563 kts 77°
2026-05-04 06:28 31.66979 124.26769 31293 ft 567 kts 77°
2026-05-04 06:28 31.67965 124.31248 31702 ft 566 kts 77°
2026-05-04 06:28 31.68959 124.35720 31973 ft 567 kts 77°
2026-05-04 06:29 31.69957 124.40209 32204 ft 569 kts 77°
2026-05-04 06:29 31.70949 124.44711 32431 ft 570 kts 77°
2026-05-04 06:29 31.71941 124.49232 32625 ft 573 kts 77°
2026-05-04 06:29 31.72940 124.53775 32767 ft 576 kts 77°
2026-05-04 06:30 31.73944 124.58337 33018 ft 577 kts 77°
2026-05-04 06:30 31.74946 124.62912 33221 ft 579 kts 77°
2026-05-04 06:30 31.75948 124.67502 33445 ft 580 kts 77°
2026-05-04 06:30 31.76950 124.72094 33710 ft 581 kts 77°
2026-05-04 06:31 31.77951 124.76685 34066 ft 579 kts 77°
2026-05-04 06:31 31.78947 124.81262 34315 ft 578 kts 77°
2026-05-04 06:31 31.79942 124.85851 34507 ft 579 kts 77°
2026-05-04 06:31 31.80923 124.90381 34691 ft 580 kts 77°
2026-05-04 06:32 31.81904 124.94985 34923 ft 579 kts 80°
2026-05-04 06:33 31.78565 125.27170 35137 ft 567 kts 107°
2026-05-04 06:34 31.77059 125.36277 35136 ft 568 kts 107°
2026-05-04 06:34 31.75549 125.45408 35142 ft 569 kts 107°
2026-05-04 06:36 31.75588 125.82274 35147 ft 588 kts 76°
2026-05-04 06:37 31.77658 125.91588 35149 ft 588 kts 77°
2026-05-04 06:37 31.79688 126.00884 35144 ft 587 kts 77°
2026-05-04 06:38 31.81705 126.10097 35138 ft 581 kts 77°
2026-05-04 06:40 31.89714 126.47138 35130 ft 585 kts 77°
2026-05-04 06:40 31.91742 126.56399 35124 ft 586 kts 77°
2026-05-04 06:41 31.93814 126.65700 35137 ft 588 kts 77°
2026-05-04 06:41 31.95846 126.75021 35118 ft 587 kts 77°
2026-05-04 06:42 31.97905 126.84377 35169 ft 593 kts 77°
2026-05-04 06:44 32.07372 127.21226 35135 ft 593 kts 66°
2026-05-04 06:44 32.08785 127.25761 35145 ft 588 kts 78°
2026-05-04 06:44 32.09528 127.30495 35149 ft 587 kts 90°
2026-05-04 06:45 32.09608 127.35285 35147 ft 581 kts 101°
2026-05-04 06:45 32.09041 127.39948 35146 ft 570 kts 112°
2026-05-04 06:45 32.07876 127.44357 35147 ft 557 kts 122°
2026-05-04 06:45 32.06192 127.48395 35120 ft 543 kts 131°
2026-05-04 06:46 32.02402 127.56097 35124 ft 543 kts 131°
2026-05-04 06:46 31.98580 127.63786 35126 ft 544 kts 131°
2026-05-04 06:48 31.83253 127.94582 35121 ft 546 kts 131°
2026-05-04 06:50 31.67783 128.25406 35102 ft 549 kts 132°
2026-05-04 06:51 31.63883 128.33132 35109 ft 550 kts 132°
2026-05-04 06:51 31.59983 128.40851 35097 ft 549 kts 132°
2026-05-04 06:52 31.56081 128.48551 35097 ft 549 kts 132°
2026-05-04 06:52 31.52204 128.56192 35100 ft 549 kts 132°
2026-05-04 06:53 31.48294 128.63878 35096 ft 548 kts 132°
2026-05-04 06:53 31.44397 128.71529 35105 ft 546 kts 133°
2026-05-04 06:54 31.40498 128.79161 35098 ft 546 kts 133°
2026-05-04 06:54 31.36597 128.86788 35098 ft 546 kts 133°
2026-05-04 06:55 31.32697 128.94398 35097 ft 543 kts 132°
2026-05-04 06:55 31.28806 129.01967 35096 ft 543 kts 133°
2026-05-04 06:57 31.13164 129.32276 35105 ft 546 kts 133°
2026-05-04 06:58 31.09211 129.39892 35090 ft 544 kts 132°
2026-05-04 06:58 31.05312 129.47394 35089 ft 544 kts 132°
2026-05-04 06:59 31.01389 129.54928 35090 ft 544 kts 131°
2026-05-04 06:59 30.97452 129.62471 35089 ft 544 kts 131°
2026-05-04 07:01 30.81712 129.92495 35089 ft 541 kts 131°
2026-05-04 07:02 30.77756 130.00006 35083 ft 541 kts 131°
2026-05-04 07:02 30.73850 130.07407 35089 ft 539 kts 131°
2026-05-04 07:03 30.69922 130.14831 35091 ft 540 kts 131°
2026-05-04 07:03 30.65985 130.22264 35087 ft 541 kts 131°
2026-05-04 07:04 30.62038 130.29699 35083 ft 542 kts 131°
2026-05-04 07:04 30.58071 130.37159 35090 ft 543 kts 131°
2026-05-04 07:05 30.54101 130.44612 35088 ft 542 kts 131°
2026-05-04 07:05 30.50129 130.52050 35081 ft 543 kts 131°
2026-05-04 07:06 30.44809 130.61997 35086 ft 544 kts 131°
2026-05-04 07:07 30.40815 130.69444 35083 ft 544 kts 131°
2026-05-04 07:09 30.24781 130.99209 35069 ft 546 kts 131°
2026-05-04 07:09 30.20754 131.06648 35069 ft 546 kts 131°
2026-05-04 07:10 30.16720 131.14090 35052 ft 546 kts 131°
2026-05-04 07:12 30.00267 131.43241 35078 ft 524 kts 146°
2026-05-04 07:12 29.97603 131.46024 35092 ft 510 kts 154°
2026-05-04 07:12 29.94711 131.48318 35074 ft 502 kts 158°
2026-05-04 07:13 29.88830 131.52699 35071 ft 504 kts 158°
2026-05-04 07:13 29.82930 131.57079 35052 ft 504 kts 158°
2026-05-04 07:14 29.68221 131.67982 35076 ft 503 kts 158°
2026-05-04 07:15 29.62338 131.72334 35079 ft 503 kts 158°
2026-05-04 07:15 29.56573 131.76809 35084 ft 506 kts 154°
2026-05-04 07:16 29.50870 131.81543 35070 ft 507 kts 154°
2026-05-04 07:16 29.45140 131.86290 35071 ft 509 kts 154°
2026-05-04 07:17 29.39396 131.91046 35075 ft 509 kts 154°
2026-05-04 07:17 29.33646 131.95793 35078 ft 509 kts 154°
2026-05-04 07:18 29.27892 132.00533 35065 ft 509 kts 153°
2026-05-04 07:18 29.22151 132.05265 35040 ft 508 kts 153°
2026-05-04 07:19 29.16409 132.09981 35060 ft 509 kts 153°
2026-05-04 07:19 29.10653 132.14708 35057 ft 509 kts 153°
2026-05-04 07:20 29.04923 132.19405 35064 ft 510 kts 153°
2026-05-04 07:20 28.99162 132.24122 35059 ft 509 kts 153°
2026-05-04 07:22 28.76129 132.42910 35051 ft 509 kts 152°
2026-05-04 07:23 28.70361 132.47599 35052 ft 509 kts 152°
2026-05-04 07:23 28.64594 132.52280 35056 ft 509 kts 152°
2026-05-04 07:24 28.58832 132.56952 35054 ft 508 kts 152°
2026-05-04 07:24 28.53069 132.61617 35032 ft 508 kts 152°
2026-05-04 07:26 28.30094 132.80146 35050 ft 506 kts 152°
2026-05-04 07:27 28.24336 132.84769 35054 ft 508 kts 152°
2026-05-04 07:27 28.18557 132.89403 35060 ft 509 kts 152°
2026-05-04 07:28 28.12764 132.94042 35057 ft 510 kts 152°
2026-05-04 07:28 28.06968 132.98678 35061 ft 510 kts 152°
2026-05-04 07:29 28.01174 133.03305 35051 ft 509 kts 152°
2026-05-04 07:29 27.95388 133.07919 35043 ft 509 kts 152°
2026-05-04 07:30 27.89638 133.12500 35052 ft 508 kts 152°
2026-05-04 07:30 27.83862 133.17100 35057 ft 508 kts 152°
2026-05-04 07:31 27.78087 133.21706 35048 ft 508 kts 152°
2026-05-04 07:33 27.54881 133.40128 35049 ft 512 kts 151°
2026-05-04 07:33 27.49054 133.44739 35047 ft 512 kts 151°
2026-05-04 07:34 27.43224 133.49347 35046 ft 512 kts 151°
2026-05-04 07:34 27.37435 133.53916 35047 ft 511 kts 151°
2026-05-04 07:35 27.31607 133.58510 35042 ft 511 kts 151°
2026-05-04 07:35 27.25769 133.63105 35049 ft 513 kts 151°
2026-05-04 07:36 27.19935 133.67694 35038 ft 510 kts 151°